Time,TemperatureF,DewpointF,PressureIn,WindDirection,WindDirectionDegrees,WindSpeedMPH,WindSpeedGustMPH,Humidity,HourlyPrecipIn,Conditions,Clouds,dailyrainin,SoftwareType,DateUTC
2013-10-23 00:00:00,64.2,25.7,29.92,NNW,340,0.0,5.0,23,0.00,,---,0.00,VWS V14.00,2013-10-23 05:00:00,
2013-10-23 00:07:00,64.1,28.5,29.92,NNW,340,0.0,4.0,26,0.00,,---,0.00,VWS V14.00,2013-10-23 05:07:00,
2013-10-23 00:13:00,64.0,30.3,29.92,North,355,2.0,6.0,28,0.00,,---,0.00,VWS V14.00,2013-10-23 05:13:00,
2013-10-23 00:15:00,65.0,-25.5,29.92,WNW,290,0.0,2.0,2,0.00,,---,0.00,VWS V14.00,2013-10-23 05:15:00,
2013-10-23 00:19:00,63.9,31.0,29.92,NE,49,0.0,2.0,29,0.00,,---,0.00,VWS V14.00,2013-10-23 05:19:00,
2013-10-23 00:25:00,63.9,31.9,29.93,WNW,289,1.0,5.0,30,0.00,,---,0.00,VWS V14.00,2013-10-23 05:25:00,
2013-10-23 00:30:00,64.7,6.9,29.92,WNW,302,0.0,4.0,10,0.00,,---,0.00,VWS V14.00,2013-10-23 05:30:00,
2013-10-23 00:31:00,63.8,32.6,29.92,NNW,332,0.0,1.0,31,0.00,,---,0.00,VWS V14.00,2013-10-23 05:31:00,
2013-10-23 00:37:00,63.7,32.5,29.92,NNW,335,0.0,2.0,31,0.00,,---,0.00,VWS V14.00,2013-10-23 05:37:00,
2013-10-23 00:43:00,63.6,32.4,29.92,NNE,15,5.0,5.0,31,0.00,,---,0.00,VWS V14.00,2013-10-23 05:43:00,
2013-10-23 00:45:00,64.5,18.8,29.92,NNW,329,0.0,5.0,17,0.00,,---,0.00,VWS V14.00,2013-10-23 05:45:00,
2013-10-23 00:49:00,63.5,32.3,29.93,NW,305,0.0,6.0,31,0.00,,---,0.00,VWS V14.00,2013-10-23 05:49:00,
2013-10-23 00:56:00,63.4,32.3,29.93,NNW,327,0.0,7.0,31,0.00,,---,0.00,VWS V14.00,2013-10-23 05:56:00,
2013-10-23 01:00:00,64.2,25.7,29.92,NNW,340,0.0,5.0,23,0.00,,---,0.00,VWS V14.00,2013-10-23 06:00:00,
2013-10-23 01:08:00,63.2,31.3,29.93,NNW,327,2.0,8.0,30,0.00,,---,0.00,VWS V14.00,2013-10-23 06:08:00,
2013-10-23 01:14:00,63.1,31.2,29.93,North,5,1.0,8.0,30,0.00,,---,0.00,VWS V14.00,2013-10-23 06:14:00,
2013-10-23 01:15:00,64.0,31.1,29.92,NNW,342,0.0,6.0,29,0.00,,---,0.00,VWS V14.00,2013-10-23 06:15:00,
2013-10-23 01:20:00,63.0,30.3,29.93,NNW,344,1.0,4.0,29,0.00,,---,0.00,VWS V14.00,2013-10-23 06:20:00,
2013-10-23 01:26:00,62.8,29.2,29.93,NNW,329,0.0,5.0,28,0.00,,---,0.00,VWS V14.00,2013-10-23 06:26:00,
2013-10-23 01:30:00,63.8,32.6,29.93,NW,324,0.0,5.0,31,0.00,,---,0.00,VWS V14.00,2013-10-23 06:30:00,
2013-10-23 01:32:00,62.6,28.2,29.93,NW,318,0.0,2.0,27,0.00,,---,0.00,VWS V14.00,2013-10-23 06:32:00,
2013-10-23 01:38:00,62.5,27.2,29.93,NW,318,0.0,2.0,26,0.00,,---,0.00,VWS V14.00,2013-10-23 06:38:00,
2013-10-23 01:44:00,62.3,26.1,29.93,NNW,333,0.0,2.0,25,0.00,,---,0.00,VWS V14.00,2013-10-23 06:44:00,
2013-10-23 01:45:00,63.6,32.4,29.92,NNW,338,0.0,5.0,31,0.00,,---,0.00,VWS V14.00,2013-10-23 06:45:00,
2013-10-23 01:50:00,62.2,25.0,29.93,NNW,336,1.0,2.0,24,0.00,,---,0.00,VWS V14.00,2013-10-23 06:50:00,
2013-10-23 01:56:00,62.1,22.8,29.93,NW,308,0.0,4.0,22,0.00,,---,0.00,VWS V14.00,2013-10-23 06:56:00,
2013-10-23 02:00:00,63.3,31.4,29.93,WNW,300,0.0,7.0,30,0.00,,---,0.00,VWS V14.00,2013-10-23 07:00:00,
2013-10-23 02:02:00,61.9,21.6,29.93,NNW,333,0.0,0.0,21,0.00,,---,0.00,VWS V14.00,2013-10-23 07:02:00,
2013-10-23 02:08:00,61.8,20.3,29.93,NW,322,0.0,4.0,20,0.00,,---,0.00,VWS V14.00,2013-10-23 07:08:00,
2013-10-23 02:14:00,61.7,19.0,29.93,NW,314,0.0,5.0,19,0.00,,---,0.00,VWS V14.00,2013-10-23 07:14:00,
2013-10-23 02:15:00,63.1,30.4,29.93,North,5,0.0,8.0,29,0.00,,---,0.00,VWS V14.00,2013-10-23 07:15:00,
2013-10-23 02:20:00,61.6,19.0,29.93,North,355,0.0,6.0,19,0.00,,---,0.00,VWS V14.00,2013-10-23 07:20:00,
2013-10-23 02:26:00,61.5,17.6,29.93,NNW,327,0.0,6.0,18,0.00,,---,0.00,VWS V14.00,2013-10-23 07:26:00,
2013-10-23 02:30:00,62.7,28.3,29.93,WNW,292,1.0,5.0,27,0.00,,---,0.00,VWS V14.00,2013-10-23 07:30:00,
2013-10-23 02:32:00,61.4,17.5,29.93,NNW,348,0.0,1.0,18,0.00,,---,0.00,VWS V14.00,2013-10-23 07:32:00,
2013-10-23 02:38:00,61.3,16.1,29.93,North,355,0.0,5.0,17,0.00,,---,0.00,VWS V14.00,2013-10-23 07:38:00,
2013-10-23 02:44:00,61.2,16.1,29.93,WNW,285,7.0,7.0,17,0.00,,---,0.00,VWS V14.00,2013-10-23 07:44:00,
2013-10-23 02:45:00,62.3,26.1,29.93,NNW,332,2.0,2.0,25,0.00,,---,0.00,VWS V14.00,2013-10-23 07:45:00,
2013-10-23 02:50:00,61.1,14.6,29.92,NW,309,0.0,6.0,16,0.00,,---,0.00,VWS V14.00,2013-10-23 07:50:00,
2013-10-23 02:56:00,61.0,13.0,29.92,North,355,0.0,9.0,15,0.00,,---,0.00,VWS V14.00,2013-10-23 07:56:00,
2013-10-23 03:00:00,62.0,21.6,29.93,NW,309,0.0,4.0,21,0.00,,---,0.00,VWS V14.00,2013-10-23 08:00:00,
2013-10-23 03:02:00,60.9,13.0,29.93,North,355,0.0,7.0,15,0.00,,---,0.00,VWS V14.00,2013-10-23 08:02:00,
2013-10-23 03:08:00,60.9,11.4,29.93,NW,311,2.0,8.0,14,0.00,,---,0.00,VWS V14.00,2013-10-23 08:08:00,
2013-10-23 03:14:00,60.8,11.3,29.93,NW,325,1.0,8.0,14,0.00,,---,0.00,VWS V14.00,2013-10-23 08:14:00,
2013-10-23 03:15:00,61.7,19.0,29.93,NNW,348,0.0,6.0,19,0.00,,---,0.00,VWS V14.00,2013-10-23 08:15:00,
2013-10-23 03:20:00,60.8,11.3,29.93,NNW,329,0.0,6.0,14,0.00,,---,0.00,VWS V14.00,2013-10-23 08:20:00,
2013-10-23 03:26:00,60.7,9.6,29.93,NNW,345,1.0,6.0,13,0.00,,---,0.00,VWS V14.00,2013-10-23 08:26:00,
2013-10-23 03:30:00,61.5,17.6,29.93,North,355,0.0,6.0,18,0.00,,---,0.00,VWS V14.00,2013-10-23 08:30:00,
2013-10-23 03:32:00,60.7,9.6,29.93,North,360,0.0,7.0,13,0.00,,---,0.00,VWS V14.00,2013-10-23 08:32:00,
2013-10-23 03:38:00,60.6,9.5,29.93,West,274,2.0,7.0,13,0.00,,---,0.00,VWS V14.00,2013-10-23 08:38:00,
2013-10-23 03:44:00,60.5,9.4,29.93,North,355,2.0,7.0,13,0.00,,---,0.00,VWS V14.00,2013-10-23 08:44:00,
2013-10-23 03:45:00,61.2,14.7,29.93,NE,35,2.0,7.0,16,0.00,,---,0.00,VWS V14.00,2013-10-23 08:45:00,
2013-10-23 03:50:00,60.4,7.6,29.93,WNW,290,1.0,6.0,12,0.00,,---,0.00,VWS V14.00,2013-10-23 08:50:00,
2013-10-23 03:56:00,60.3,7.5,29.94,WNW,292,1.0,7.0,12,0.00,,---,0.00,VWS V14.00,2013-10-23 08:56:00,
2013-10-23 04:00:00,61.0,13.0,29.93,NW,317,0.0,9.0,15,0.00,,---,0.00,VWS V14.00,2013-10-23 09:00:00,
2013-10-23 04:02:00,60.1,7.3,29.94,WNW,300,1.0,8.0,12,0.00,,---,0.00,VWS V14.00,2013-10-23 09:02:00,
2013-10-23 04:08:00,60.0,7.3,29.94,WNW,298,2.0,8.0,12,0.00,,---,0.00,VWS V14.00,2013-10-23 09:08:00,
2013-10-23 04:14:00,59.9,7.2,29.94,NNW,329,0.0,8.0,12,0.00,,---,0.00,VWS V14.00,2013-10-23 09:14:00,
2013-10-23 04:15:00,60.8,11.3,29.93,NNW,331,1.0,8.0,14,0.00,,---,0.00,VWS V14.00,2013-10-23 09:15:00,
2013-10-23 04:20:00,59.8,8.9,29.94,WNW,303,1.0,8.0,13,0.00,,---,0.00,VWS V14.00,2013-10-23 09:20:00,
2013-10-23 04:26:00,59.8,10.5,29.94,North,5,1.0,12.0,14,0.00,,---,0.00,VWS V14.00,2013-10-23 09:26:00,
2013-10-23 04:30:00,60.7,9.6,29.93,NW,325,5.0,8.0,13,0.00,,---,0.00,VWS V14.00,2013-10-23 09:30:00,
2013-10-23 04:32:00,59.7,12.0,29.95,NNW,329,1.0,9.0,15,0.00,,---,0.00,VWS V14.00,2013-10-23 09:32:00,
2013-10-23 04:38:00,59.6,13.4,29.95,West,269,0.0,9.0,16,0.00,,---,0.00,VWS V14.00,2013-10-23 09:38:00,
2013-10-23 04:44:00,59.6,13.4,29.95,NNW,327,0.0,9.0,16,0.00,,---,0.00,VWS V14.00,2013-10-23 09:44:00,
2013-10-23 04:45:00,60.5,9.4,29.93,NW,309,1.0,7.0,13,0.00,,---,0.00,VWS V14.00,2013-10-23 09:45:00,
2013-10-23 04:50:00,59.5,13.3,29.95,NNW,329,0.0,6.0,16,0.00,,---,0.00,VWS V14.00,2013-10-23 09:50:00,
2013-10-23 04:56:00,59.3,11.7,29.95,WNW,296,0.0,6.0,15,0.00,,---,0.00,VWS V14.00,2013-10-23 09:56:00,
2013-10-23 05:00:00,60.2,7.4,29.94,WNW,284,2.0,8.0,12,0.00,,---,0.00,VWS V14.00,2013-10-23 10:00:00,
2013-10-23 05:02:00,59.3,11.7,29.95,NNW,348,1.0,1.0,15,0.00,,---,0.00,VWS V14.00,2013-10-23 10:02:00,
2013-10-23 05:08:00,59.1,10.0,29.95,NNW,348,0.0,1.0,14,0.00,,---,0.00,VWS V14.00,2013-10-23 10:08:00,
2013-10-23 05:14:00,59.0,8.2,29.95,NW,304,0.0,4.0,13,0.00,,---,0.00,VWS V14.00,2013-10-23 10:14:00,
2013-10-23 05:15:00,59.9,7.2,29.94,WNW,297,0.0,8.0,12,0.00,,---,0.00,VWS V14.00,2013-10-23 10:15:00,
2013-10-23 05:20:00,58.8,4.4,29.95,NNW,346,1.0,2.0,11,0.00,,---,0.00,VWS V14.00,2013-10-23 10:20:00,
2013-10-23 05:26:00,58.7,0.0,29.96,NW,317,0.0,2.0,9,0.00,,---,0.00,VWS V14.00,2013-10-23 10:26:00,
2013-10-23 05:30:00,59.7,12.0,29.94,NNE,20,4.0,12.0,15,0.00,,---,0.00,VWS V14.00,2013-10-23 10:30:00,
2013-10-23 05:32:00,58.6,-2.5,29.96,NW,313,0.0,2.0,8,0.00,,---,0.00,VWS V14.00,2013-10-23 10:32:00,
2013-10-23 05:38:00,58.4,-8.6,29.96,WNW,285,6.0,7.0,6,0.00,,---,0.00,VWS V14.00,2013-10-23 10:38:00,
2013-10-23 05:44:00,58.2,-12.4,29.96,NNW,344,4.0,7.0,5,0.00,,---,0.00,VWS V14.00,2013-10-23 10:44:00,
2013-10-23 05:45:00,59.5,13.3,29.95,NW,325,0.0,9.0,16,0.00,,---,0.00,VWS V14.00,2013-10-23 10:45:00,
2013-10-23 05:50:00,58.0,-12.6,29.96,NW,305,3.0,7.0,5,0.00,,---,0.00,VWS V14.00,2013-10-23 10:50:00,
2013-10-23 05:56:00,57.8,-9.1,29.97,North,11,1.0,8.0,6,0.00,,---,0.00,VWS V14.00,2013-10-23 10:56:00,
2013-10-23 06:00:00,59.3,11.7,29.95,NNW,348,0.0,6.0,15,0.00,,---,0.00,VWS V14.00,2013-10-23 11:00:00,
2013-10-23 06:02:00,57.7,-3.2,29.97,NNW,331,1.0,7.0,8,0.00,,---,0.00,VWS V14.00,2013-10-23 11:02:00,
2013-10-23 06:08:00,57.7,-0.7,29.97,North,355,4.0,8.0,9,0.00,,---,0.00,VWS V14.00,2013-10-23 11:08:00,
2013-10-23 06:14:00,57.6,-0.8,29.97,West,281,0.0,8.0,9,0.00,,---,0.00,VWS V14.00,2013-10-23 11:14:00,
2013-10-23 06:15:00,58.9,6.4,29.95,NW,306,0.0,4.0,12,0.00,,---,0.00,VWS V14.00,2013-10-23 11:15:00,
2013-10-23 06:20:00,57.5,1.4,29.97,NNW,327,0.0,6.0,10,0.00,,---,0.00,VWS V14.00,2013-10-23 11:20:00,
2013-10-23 06:26:00,57.5,1.4,29.97,NW,325,0.0,6.0,10,0.00,,---,0.00,VWS V14.00,2013-10-23 11:26:00,
2013-10-23 06:30:00,58.6,-2.5,29.96,NW,325,0.0,4.0,8,0.00,,---,0.00,VWS V14.00,2013-10-23 11:30:00,
2013-10-23 06:32:00,57.4,1.3,29.98,WNW,286,2.0,6.0,10,0.00,,---,0.00,VWS V14.00,2013-10-23 11:32:00,
2013-10-23 06:38:00,57.3,1.2,29.98,WNW,296,0.0,6.0,10,0.00,,---,0.00,VWS V14.00,2013-10-23 11:38:00,
2013-10-23 06:44:00,57.3,1.2,29.98,NW,309,1.0,6.0,10,0.00,,---,0.00,VWS V14.00,2013-10-23 11:44:00,
2013-10-23 06:45:00,58.2,-12.4,29.96,North,355,0.0,7.0,5,0.00,,---,0.00,VWS V14.00,2013-10-23 11:45:00,
2013-10-23 06:50:00,57.1,1.0,29.98,NNW,346,1.0,7.0,10,0.00,,---,0.00,VWS V14.00,2013-10-23 11:50:00,
2013-10-23 06:56:00,57.0,-1.3,29.98,NNW,346,9.0,9.0,9,0.00,,---,0.00,VWS V14.00,2013-10-23 11:56:00,
2013-10-23 07:00:00,57.7,-6.0,29.97,NNE,17,0.0,8.0,7,0.00,,---,0.00,VWS V14.00,2013-10-23 12:00:00,
2013-10-23 07:02:00,57.0,-1.3,29.99,NW,324,6.0,6.0,9,0.00,,---,0.00,VWS V14.00,2013-10-23 12:02:00,
2013-10-23 07:08:00,56.9,-3.8,29.99,NW,324,0.0,6.0,8,0.00,,---,0.00,VWS V14.00,2013-10-23 12:08:00,
2013-10-23 07:14:00,56.8,-3.9,30.00,NNW,328,4.0,9.0,8,0.00,,---,0.00,VWS V14.00,2013-10-23 12:14:00,
2013-10-23 07:15:00,57.6,-0.8,29.97,NNW,342,1.0,8.0,9,0.00,,---,0.00,VWS V14.00,2013-10-23 12:15:00,
2013-10-23 07:20:00,56.8,-3.9,30.00,North,11,4.0,8.0,8,0.00,,---,0.00,VWS V14.00,2013-10-23 12:20:00,
2013-10-23 07:26:00,56.7,0.8,30.00,NNW,337,4.0,8.0,10,0.00,,---,0.00,VWS V14.00,2013-10-23 12:26:00,
2013-10-23 07:30:00,57.4,1.3,29.98,West,276,6.0,8.0,10,0.00,,---,0.00,VWS V14.00,2013-10-23 12:30:00,
2013-10-23 07:32:00,56.7,4.7,30.00,WNW,292,3.0,6.0,12,0.00,,---,0.00,VWS V14.00,2013-10-23 12:32:00,
2013-10-23 07:38:00,56.8,9.7,30.00,WNW,294,5.0,9.0,15,0.00,,---,0.00,VWS V14.00,2013-10-23 12:38:00,
2013-10-23 07:44:00,57.0,13.9,30.01,NNW,333,5.0,9.0,18,0.00,,---,0.00,VWS V14.00,2013-10-23 12:44:00,
2013-10-23 07:45:00,57.2,1.1,29.98,NNE,26,0.0,6.0,10,0.00,,---,0.00,VWS V14.00,2013-10-23 12:45:00,
2013-10-23 07:50:00,57.2,17.6,30.01,NNW,344,0.0,6.0,21,0.00,,---,0.00,VWS V14.00,2013-10-23 12:50:00,
2013-10-23 07:57:00,57.5,21.0,30.00,NNW,344,0.0,8.0,24,0.00,,---,0.00,VWS V14.00,2013-10-23 12:57:00,
2013-10-23 08:00:00,57.0,-1.3,29.99,West,281,5.0,9.0,9,0.00,,---,0.00,VWS V14.00,2013-10-23 13:00:00,
2013-10-23 08:03:00,57.8,23.2,30.01,North,5,6.0,6.0,26,0.00,,---,0.00,VWS V14.00,2013-10-23 13:03:00,
2013-10-23 08:09:00,58.1,26.0,30.01,West,267,4.0,8.0,29,0.00,,---,0.00,VWS V14.00,2013-10-23 13:09:00,
2013-10-23 08:15:00,58.4,28.7,30.01,North,9,0.0,8.0,32,0.00,,---,0.00,VWS V14.00,2013-10-23 13:15:00,
2013-10-23 08:21:00,58.7,29.7,30.01,NW,325,2.0,10.0,33,0.00,,---,0.00,VWS V14.00,2013-10-23 13:21:00,
2013-10-23 08:27:00,59.0,32.1,30.01,NW,313,4.0,10.0,36,0.00,,---,0.00,VWS V14.00,2013-10-23 13:27:00,
2013-10-23 08:30:00,56.8,2.9,30.00,North,360,0.0,8.0,11,0.00,,---,0.00,VWS V14.00,2013-10-23 13:30:00,
2013-10-23 08:33:00,59.5,34.5,30.02,NE,36,5.0,8.0,39,0.00,,---,0.00,VWS V14.00,2013-10-23 13:33:00,
2013-10-23 08:39:00,59.9,36.2,30.02,NNW,327,3.0,10.0,41,0.00,,---,0.00,VWS V14.00,2013-10-23 13:39:00,
2013-10-23 08:45:00,60.4,38.4,30.02,NNW,332,6.0,10.0,44,0.00,,---,0.00,VWS V14.00,2013-10-23 13:45:00,
2013-10-23 08:51:00,60.8,40.5,30.02,NNW,332,6.0,9.0,47,0.00,,---,0.00,VWS V14.00,2013-10-23 13:51:00,
2013-10-23 08:57:00,61.4,42.6,30.02,WNW,294,4.0,13.0,50,0.00,,---,0.00,VWS V14.00,2013-10-23 13:57:00,
2013-10-23 09:00:00,57.6,21.1,30.01,West,279,3.0,8.0,24,0.00,,---,0.00,VWS V14.00,2013-10-23 14:00:00,
2013-10-23 09:03:00,61.9,43.6,30.03,WNW,286,4.0,7.0,51,0.00,,---,0.00,VWS V14.00,2013-10-23 14:03:00,
2013-10-23 09:09:00,62.3,45.0,30.03,WNW,299,4.0,9.0,53,0.00,,---,0.00,VWS V14.00,2013-10-23 14:09:00,
2013-10-23 09:15:00,62.8,45.9,30.03,NW,319,0.0,10.0,54,0.00,,---,0.00,VWS V14.00,2013-10-23 14:15:00,
2013-10-23 09:21:00,63.1,46.7,30.03,NW,312,4.0,11.0,55,0.00,,---,0.00,VWS V14.00,2013-10-23 14:21:00,
2013-10-23 09:27:00,63.6,47.6,30.04,NW,311,7.0,11.0,56,0.00,,---,0.00,VWS V14.00,2013-10-23 14:27:00,
2013-10-23 09:30:00,59.3,33.0,30.02,West,262,5.0,10.0,37,0.00,,---,0.00,VWS V14.00,2013-10-23 14:30:00,
2013-10-23 09:33:00,63.9,47.4,30.03,North,355,2.0,7.0,55,0.00,,---,0.00,VWS V14.00,2013-10-23 14:33:00,
2013-10-23 09:39:00,64.2,47.7,30.04,NW,314,6.0,10.0,55,0.00,,---,0.00,VWS V14.00,2013-10-23 14:39:00,
2013-10-23 09:45:00,64.4,48.4,30.04,NNE,24,1.0,10.0,56,0.00,,---,0.00,VWS V14.00,2013-10-23 14:45:00,
2013-10-23 09:51:00,64.7,48.7,30.04,NNW,339,2.0,8.0,56,0.00,,---,0.00,VWS V14.00,2013-10-23 14:51:00,
2013-10-23 09:57:00,64.9,49.3,30.04,NW,309,4.0,8.0,57,0.00,,---,0.00,VWS V14.00,2013-10-23 14:57:00,
2013-10-23 10:00:00,61.7,42.9,30.02,NW,321,3.0,13.0,50,0.00,,---,0.00,VWS V14.00,2013-10-23 15:00:00,
2013-10-23 10:03:00,65.2,50.1,30.04,NNE,18,6.0,8.0,58,0.00,,---,0.00,VWS V14.00,2013-10-23 15:03:00,
2013-10-23 10:09:00,65.3,50.2,30.04,NW,315,0.0,10.0,58,0.00,,---,0.00,VWS V14.00,2013-10-23 15:09:00,
2013-10-23 10:15:00,65.6,50.4,30.04,NNW,337,3.0,10.0,58,0.00,,---,0.00,VWS V14.00,2013-10-23 15:15:00,
2013-10-23 10:21:00,65.9,50.7,30.04,NW,313,3.0,5.0,58,0.00,,---,0.00,VWS V14.00,2013-10-23 15:21:00,
2013-10-23 10:27:00,66.2,51.0,30.04,NNW,338,1.0,9.0,58,0.00,,---,0.00,VWS V14.00,2013-10-23 15:27:00,
2013-10-23 10:30:00,63.7,47.7,30.03,North,360,0.0,11.0,56,0.00,,---,0.00,VWS V14.00,2013-10-23 15:30:00,
2013-10-23 10:33:00,66.5,51.3,30.04,NW,308,1.0,7.0,58,0.00,,---,0.00,VWS V14.00,2013-10-23 15:33:00,
2013-10-23 10:39:00,66.9,51.7,30.04,WNW,298,4.0,8.0,58,0.00,,---,0.00,VWS V14.00,2013-10-23 15:39:00,
2013-10-23 10:45:00,67.2,51.9,30.04,NNE,31,0.0,8.0,58,0.00,,---,0.00,VWS V14.00,2013-10-23 15:45:00,
2013-10-23 10:51:00,67.6,52.3,30.04,North,350,4.0,8.0,58,0.00,,---,0.00,VWS V14.00,2013-10-23 15:51:00,
2013-10-23 10:57:00,68.0,52.7,30.04,West,267,0.0,8.0,58,0.00,,---,0.00,VWS V14.00,2013-10-23 15:57:00,
2013-10-23 11:00:00,65.1,50.0,30.04,NW,319,1.0,12.0,58,0.00,,---,0.00,VWS V14.00,2013-10-23 16:00:00,
2013-10-23 11:03:00,68.5,52.7,30.04,NNW,327,0.0,7.0,57,0.00,,---,0.00,VWS V14.00,2013-10-23 16:03:00,
2013-10-23 11:09:00,69.0,53.2,30.03,WNW,289,5.0,8.0,57,0.00,,---,0.00,VWS V14.00,2013-10-23 16:09:00,
2013-10-23 11:15:00,69.4,53.0,30.03,North,5,5.0,10.0,56,0.00,,---,0.00,VWS V14.00,2013-10-23 16:15:00,
2013-10-23 11:21:00,69.6,53.2,30.03,NNW,331,1.0,11.0,56,0.00,,---,0.00,VWS V14.00,2013-10-23 16:21:00,
2013-10-23 11:27:00,70.0,53.1,30.03,NW,325,2.0,11.0,55,0.00,,---,0.00,VWS V14.00,2013-10-23 16:27:00,
2013-10-23 11:30:00,66.4,51.2,30.04,NNW,342,3.0,9.0,58,0.00,,---,0.00,VWS V14.00,2013-10-23 16:30:00,
2013-10-23 11:33:00,70.2,53.3,30.03,WNW,300,7.0,8.0,55,0.00,,---,0.00,VWS V14.00,2013-10-23 16:33:00,
2013-10-23 11:39:00,70.1,52.7,30.02,North,360,0.0,11.0,54,0.00,,---,0.00,VWS V14.00,2013-10-23 16:39:00,
2013-10-23 11:45:00,70.2,52.3,30.02,WNW,302,5.0,11.0,53,0.00,,---,0.00,VWS V14.00,2013-10-23 16:45:00,
2013-10-23 11:51:00,70.3,51.9,30.02,NNW,348,7.0,13.0,52,0.00,,---,0.00,VWS V14.00,2013-10-23 16:51:00,
2013-10-23 11:57:00,70.3,51.9,30.02,WNW,291,2.0,14.0,52,0.00,,---,0.00,VWS V14.00,2013-10-23 16:57:00,
2013-10-23 12:00:00,68.3,52.5,30.04,ESE,113,6.0,8.0,57,0.00,,---,0.00,VWS V14.00,2013-10-23 17:00:00,
2013-10-23 12:03:00,70.6,51.6,30.01,North,360,9.0,10.0,51,0.00,,---,0.00,VWS V14.00,2013-10-23 17:03:00,
2013-10-23 12:09:00,70.4,50.9,30.01,WNW,288,5.0,14.0,50,0.00,,---,0.00,VWS V14.00,2013-10-23 17:09:00,
2013-10-23 12:15:00,70.4,50.9,30.01,WNW,302,0.0,15.0,50,0.00,,---,0.00,VWS V14.00,2013-10-23 17:15:00,
2013-10-23 12:21:00,70.7,51.7,30.01,NNW,327,2.0,10.0,51,0.00,,---,0.00,VWS V14.00,2013-10-23 17:21:00,
2013-10-23 12:27:00,71.0,51.5,30.01,West,275,3.0,10.0,50,0.00,,---,0.00,VWS V14.00,2013-10-23 17:27:00,
2013-10-23 12:30:00,70.1,52.7,30.03,West,263,2.0,11.0,54,0.00,,---,0.00,VWS V14.00,2013-10-23 17:30:00,
2013-10-23 12:33:00,70.8,50.7,30.01,NE,49,3.0,13.0,49,0.00,,---,0.00,VWS V14.00,2013-10-23 17:33:00,
2013-10-23 12:39:00,70.7,49.5,30.00,North,355,4.0,13.0,47,0.00,,---,0.00,VWS V14.00,2013-10-23 17:39:00,
2013-10-23 12:45:00,70.9,50.8,30.00,NNW,346,5.0,13.0,49,0.00,,---,0.00,VWS V14.00,2013-10-23 17:45:00,
2013-10-23 12:51:00,71.4,51.3,30.00,NW,316,4.0,7.0,49,0.00,,---,0.00,VWS V14.00,2013-10-23 17:51:00,
2013-10-23 12:57:00,71.9,51.7,30.00,North,351,5.0,10.0,49,0.00,,---,0.00,VWS V14.00,2013-10-23 17:57:00,
2013-10-23 13:00:00,70.4,52.0,30.02,NNW,348,4.0,14.0,52,0.00,,---,0.00,VWS V14.00,2013-10-23 18:00:00,
2013-10-23 13:03:00,71.4,49.6,30.00,NE,50,0.0,13.0,46,0.00,,---,0.00,VWS V14.00,2013-10-23 18:03:00,
2013-10-23 13:09:00,71.5,50.8,29.99,WNW,288,6.0,13.0,48,0.00,,---,0.00,VWS V14.00,2013-10-23 18:09:00,
2013-10-23 13:15:00,71.7,51.0,29.99,NNW,346,5.0,13.0,48,0.00,,---,0.00,VWS V14.00,2013-10-23 18:15:00,
2013-10-23 13:21:00,71.4,50.1,29.99,NW,305,6.0,9.0,47,0.00,,---,0.00,VWS V14.00,2013-10-23 18:21:00,
2013-10-23 13:27:00,71.9,50.6,29.99,NE,56,0.0,10.0,47,0.00,,---,0.00,VWS V14.00,2013-10-23 18:27:00,
2013-10-23 13:30:00,70.9,50.8,30.01,NNW,345,4.0,11.0,49,0.00,,---,0.00,VWS V14.00,2013-10-23 18:30:00,
2013-10-23 13:33:00,72.2,51.4,29.99,NNW,329,6.0,6.0,48,0.00,,---,0.00,VWS V14.00,2013-10-23 18:33:00,
2013-10-23 13:39:00,72.3,50.4,29.98,NNW,342,1.0,9.0,46,0.00,,---,0.00,VWS V14.00,2013-10-23 18:39:00,
2013-10-23 13:45:00,72.5,51.2,29.98,NNE,27,2.0,9.0,47,0.00,,---,0.00,VWS V14.00,2013-10-23 18:45:00,
2013-10-23 13:51:00,72.7,50.8,29.98,NNE,29,1.0,7.0,46,0.00,,---,0.00,VWS V14.00,2013-10-23 18:51:00,
2013-10-23 13:57:00,72.1,49.0,29.99,North,5,5.0,13.0,44,0.00,,---,0.00,VWS V14.00,2013-10-23 18:57:00,
2013-10-23 14:00:00,71.9,50.6,30.00,North,355,7.0,10.0,47,0.00,,---,0.00,VWS V14.00,2013-10-23 19:00:00,
2013-10-23 14:03:00,71.8,48.7,29.99,East,80,2.0,8.0,44,0.00,,---,0.00,VWS V14.00,2013-10-23 19:03:00,
2013-10-23 14:09:00,71.9,48.8,29.99,NW,304,1.0,10.0,44,0.00,,---,0.00,VWS V14.00,2013-10-23 19:09:00,
2013-10-23 14:15:00,72.0,47.0,29.99,NNW,327,6.0,11.0,41,0.00,,---,0.00,VWS V14.00,2013-10-23 19:15:00,
2013-10-23 14:22:00,71.9,47.0,29.99,NNW,331,5.0,10.0,41,0.00,,---,0.00,VWS V14.00,2013-10-23 19:22:00,
2013-10-23 14:28:00,72.3,47.3,29.99,NW,323,3.0,10.0,41,0.00,,---,0.00,VWS V14.00,2013-10-23 19:28:00,
2013-10-23 14:30:00,71.7,51.0,29.99,East,85,1.0,10.0,48,0.00,,---,0.00,VWS V14.00,2013-10-23 19:30:00,
2013-10-23 14:34:00,72.4,46.1,29.99,NW,315,5.0,9.0,39,0.00,,---,0.00,VWS V14.00,2013-10-23 19:34:00,
2013-10-23 14:40:00,72.0,44.3,29.99,NNW,328,4.0,10.0,37,0.00,,---,0.00,VWS V14.00,2013-10-23 19:40:00,
2013-10-23 14:45:00,72.1,45.1,29.99,NNW,346,4.0,10.0,38,0.00,,---,0.00,VWS V14.00,2013-10-23 19:45:00,
2013-10-23 14:52:00,72.9,45.8,29.99,North,355,5.0,9.0,38,0.00,,---,0.00,VWS V14.00,2013-10-23 19:52:00,
2013-10-23 14:58:00,72.2,45.2,29.99,NW,317,1.0,9.0,38,0.00,,---,0.00,VWS V14.00,2013-10-23 19:58:00,
2013-10-23 15:00:00,72.2,49.1,29.99,NE,40,3.0,13.0,44,0.00,,---,0.00,VWS V14.00,2013-10-23 20:00:00,
2013-10-23 15:04:00,72.1,44.4,29.99,NW,311,3.0,11.0,37,0.00,,---,0.00,VWS V14.00,2013-10-23 20:04:00,
2013-10-23 15:10:00,72.4,44.7,29.99,NW,306,1.0,11.0,37,0.00,,---,0.00,VWS V14.00,2013-10-23 20:10:00,
2013-10-23 15:15:00,72.6,44.9,29.99,NNW,338,0.0,11.0,37,0.00,,---,0.00,VWS V14.00,2013-10-23 20:15:00,
2013-10-23 15:22:00,72.8,45.0,29.99,NNW,340,2.0,8.0,37,0.00,,---,0.00,VWS V14.00,2013-10-23 20:22:00,
2013-10-23 15:28:00,72.6,45.6,29.99,NNE,17,0.0,8.0,38,0.00,,---,0.00,VWS V14.00,2013-10-23 20:28:00,
2013-10-23 15:30:00,72.3,44.6,29.99,NNW,335,9.0,11.0,37,0.00,,---,0.00,VWS V14.00,2013-10-23 20:30:00,
2013-10-23 15:34:00,72.4,44.0,29.99,NW,321,5.0,7.0,36,0.00,,---,0.00,VWS V14.00,2013-10-23 20:34:00,
2013-10-23 15:40:00,72.5,46.2,29.99,NE,36,0.0,7.0,39,0.00,,---,0.00,VWS V14.00,2013-10-23 20:40:00,
2013-10-23 15:45:00,72.6,45.6,29.99,WNW,290,1.0,9.0,38,0.00,,---,0.00,VWS V14.00,2013-10-23 20:45:00,
2013-10-23 15:52:00,72.3,45.3,29.99,North,360,2.0,6.0,38,0.00,,---,0.00,VWS V14.00,2013-10-23 20:52:00,
2013-10-23 15:58:00,72.2,45.9,29.99,NNW,348,5.0,6.0,39,0.00,,---,0.00,VWS V14.00,2013-10-23 20:58:00,
2013-10-23 16:00:00,72.3,44.6,29.99,NNW,342,6.0,10.0,37,0.00,,---,0.00,VWS V14.00,2013-10-23 21:00:00,
2013-10-23 16:04:00,72.2,45.9,29.99,NNE,24,0.0,7.0,39,0.00,,---,0.00,VWS V14.00,2013-10-23 21:04:00,
2013-10-23 16:10:00,72.2,45.9,29.99,NNW,330,2.0,7.0,39,0.00,,---,0.00,VWS V14.00,2013-10-23 21:10:00,
2013-10-23 16:15:00,72.2,44.5,29.99,NW,317,4.0,10.0,37,0.00,,---,0.00,VWS V14.00,2013-10-23 21:15:00,
2013-10-23 16:22:00,72.0,45.0,29.99,NW,306,5.0,8.0,38,0.00,,---,0.00,VWS V14.00,2013-10-23 21:22:00,
2013-10-23 16:28:00,72.0,45.0,29.99,NW,310,5.0,8.0,38,0.00,,---,0.00,VWS V14.00,2013-10-23 21:28:00,
2013-10-23 16:30:00,72.6,44.9,29.99,NNW,333,1.0,9.0,37,0.00,,---,0.00,VWS V14.00,2013-10-23 21:30:00,
2013-10-23 16:34:00,72.0,45.7,29.99,NNE,16,0.0,6.0,39,0.00,,---,0.00,VWS V14.00,2013-10-23 21:34:00,
2013-10-23 16:40:00,71.9,46.3,30.00,NNE,15,3.0,9.0,40,0.00,,---,0.00,VWS V14.00,2013-10-23 21:40:00,
2013-10-23 16:45:00,71.6,45.4,30.00,North,5,3.0,9.0,39,0.00,,---,0.00,VWS V14.00,2013-10-23 21:45:00,
2013-10-23 16:52:00,71.5,43.9,30.00,ENE,78,1.0,11.0,37,0.00,,---,0.00,VWS V14.00,2013-10-23 21:52:00,
2013-10-23 16:58:00,71.3,44.4,30.00,NNW,342,4.0,11.0,38,0.00,,---,0.00,VWS V14.00,2013-10-23 21:58:00,
2013-10-23 17:00:00,72.5,45.5,29.99,WNW,298,7.0,8.0,38,0.00,,---,0.00,VWS V14.00,2013-10-23 22:00:00,
2013-10-23 17:04:00,71.1,44.9,30.00,WNW,298,1.0,7.0,39,0.00,,---,0.00,VWS V14.00,2013-10-23 22:04:00,
2013-10-23 17:10:00,70.8,45.3,30.00,NW,326,0.0,8.0,40,0.00,,---,0.00,VWS V14.00,2013-10-23 22:10:00,
2013-10-23 17:15:00,70.7,45.9,30.00,WNW,289,1.0,8.0,41,0.00,,---,0.00,VWS V14.00,2013-10-23 22:15:00,
2013-10-23 17:22:00,70.5,45.7,30.00,NW,317,0.0,5.0,41,0.00,,---,0.00,VWS V14.00,2013-10-23 22:22:00,
2013-10-23 17:28:00,70.2,44.8,30.00,NNW,338,0.0,6.0,40,0.00,,---,0.00,VWS V14.00,2013-10-23 22:28:00,
2013-10-23 17:30:00,71.9,45.6,29.99,NNW,336,2.0,8.0,39,0.00,,---,0.00,VWS V14.00,2013-10-23 22:30:00,
2013-10-23 17:34:00,69.8,44.4,30.01,NNW,329,0.0,8.0,40,0.00,,---,0.00,VWS V14.00,2013-10-23 22:34:00,
2013-10-23 17:40:00,69.5,44.2,30.01,NW,311,3.0,8.0,40,0.00,,---,0.00,VWS V14.00,2013-10-23 22:40:00,
2013-10-23 17:45:00,69.2,43.9,30.01,North,349,1.0,8.0,40,0.00,,---,0.00,VWS V14.00,2013-10-23 22:45:00,
2013-10-23 17:52:00,68.9,44.2,30.01,North,360,1.0,7.0,41,0.00,,---,0.00,VWS V14.00,2013-10-23 22:52:00,
2013-10-23 17:58:00,68.6,44.0,30.01,NW,307,0.0,7.0,41,0.00,,---,0.00,VWS V14.00,2013-10-23 22:58:00,
2013-10-23 18:00:00,71.3,44.4,30.00,North,355,5.0,11.0,38,0.00,,---,0.00,VWS V14.00,2013-10-23 23:00:00,
2013-10-23 18:04:00,68.3,43.7,30.01,NNE,18,2.0,5.0,41,0.00,,---,0.00,VWS V14.00,2013-10-23 23:04:00,
2013-10-23 18:10:00,67.9,44.0,30.01,NW,311,1.0,5.0,42,0.00,,---,0.00,VWS V14.00,2013-10-23 23:10:00,
2013-10-23 18:15:00,67.6,44.3,30.01,North,350,5.0,6.0,43,0.00,,---,0.00,VWS V14.00,2013-10-23 23:15:00,
2013-10-23 18:22:00,67.2,44.0,30.01,North,5,3.0,5.0,43,0.00,,---,0.00,VWS V14.00,2013-10-23 23:22:00,
2013-10-23 18:28:00,67.0,44.4,30.02,North,5,0.0,5.0,44,0.00,,---,0.00,VWS V14.00,2013-10-23 23:28:00,
2013-10-23 18:30:00,70.1,44.7,30.00,West,281,4.0,6.0,40,0.00,,---,0.00,VWS V14.00,2013-10-23 23:30:00,
2013-10-23 18:34:00,66.6,44.0,30.02,North,355,0.0,3.0,44,0.00,,---,0.00,VWS V14.00,2013-10-23 23:34:00,
2013-10-23 18:40:00,66.3,44.3,30.02,NW,326,0.0,6.0,45,0.00,,---,0.00,VWS V14.00,2013-10-23 23:40:00,
2013-10-23 18:45:00,69.2,43.9,30.01,North,349,1.0,8.0,40,0.00,,---,0.00,VWS V14.00,2013-10-23 23:45:00,
2013-10-23 18:46:00,65.9,44.0,30.02,WNW,290,5.0,6.0,45,0.00,,---,0.00,VWS V14.00,2013-10-23 23:46:00,
2013-10-23 18:52:00,65.6,44.3,30.02,North,355,0.0,6.0,46,0.00,,---,0.00,VWS V14.00,2013-10-23 23:52:00,
2013-10-23 18:58:00,65.4,44.7,30.02,NNW,327,0.0,7.0,47,0.00,,---,0.00,VWS V14.00,2013-10-23 23:58:00,
2013-10-23 19:00:00,68.5,43.9,30.01,NNW,346,0.0,7.0,41,0.00,,---,0.00,VWS V14.00,2013-10-24 00:00:00,
2013-10-23 19:04:00,65.1,44.4,30.03,NNW,328,0.0,4.0,47,0.00,,---,0.00,VWS V14.00,2013-10-24 00:04:00,
2013-10-23 19:10:00,64.8,44.1,30.03,WNW,285,0.0,4.0,47,0.00,,---,0.00,VWS V14.00,2013-10-24 00:10:00,
2013-10-23 19:15:00,67.6,44.3,30.01,North,350,5.0,6.0,43,0.00,,---,0.00,VWS V14.00,2013-10-24 00:15:00,
2013-10-23 19:16:00,64.5,43.8,30.04,NNW,327,0.0,2.0,47,0.00,,---,0.00,VWS V14.00,2013-10-24 00:16:00,
2013-10-23 19:22:00,64.3,43.7,30.04,NNW,340,1.0,5.0,47,0.00,,---,0.00,VWS V14.00,2013-10-24 00:22:00,
2013-10-23 19:28:00,64.1,44.0,30.04,NNW,346,0.0,5.0,48,0.00,,---,0.00,VWS V14.00,2013-10-24 00:28:00,
2013-10-23 19:30:00,66.9,44.3,30.02,NNW,340,0.0,5.0,44,0.00,,---,0.00,VWS V14.00,2013-10-24 00:30:00,
2013-10-23 19:34:00,63.9,43.8,30.05,NW,325,1.0,5.0,48,0.00,,---,0.00,VWS V14.00,2013-10-24 00:34:00,
2013-10-23 19:40:00,63.7,43.7,30.05,NNW,329,0.0,5.0,48,0.00,,---,0.00,VWS V14.00,2013-10-24 00:40:00,
2013-10-23 19:45:00,66.0,44.1,30.02,North,355,1.0,6.0,45,0.00,,---,0.00,VWS V14.00,2013-10-24 00:45:00,
2013-10-23 19:46:00,63.4,43.4,30.05,NNW,332,2.0,2.0,48,0.00,,---,0.00,VWS V14.00,2013-10-24 00:46:00,
2013-10-23 19:52:00,63.2,43.7,30.05,North,360,1.0,5.0,49,0.00,,---,0.00,VWS V14.00,2013-10-24 00:52:00,
2013-10-23 19:58:00,62.9,43.5,30.06,North,349,0.0,5.0,49,0.00,,---,0.00,VWS V14.00,2013-10-24 00:58:00,
2013-10-23 20:00:00,65.3,44.0,30.02,NNW,333,5.0,7.0,46,0.00,,---,0.00,VWS V14.00,2013-10-24 01:00:00,
2013-10-23 20:04:00,62.7,43.3,30.06,WNW,293,0.0,5.0,49,0.00,,---,0.00,VWS V14.00,2013-10-24 01:04:00,
2013-10-23 20:10:00,62.4,43.5,30.06,NW,304,0.0,5.0,50,0.00,,---,0.00,VWS V14.00,2013-10-24 01:10:00,
2013-10-23 20:15:00,64.6,43.9,30.03,West,259,1.0,7.0,47,0.00,,---,0.00,VWS V14.00,2013-10-24 01:15:00,
2013-10-23 20:16:00,62.2,43.3,30.07,NW,305,0.0,3.0,50,0.00,,---,0.00,VWS V14.00,2013-10-24 01:16:00,
2013-10-23 20:22:00,62.1,43.8,30.07,NW,305,0.0,3.0,51,0.00,,---,0.00,VWS V14.00,2013-10-24 01:22:00,
2013-10-23 20:28:00,61.7,43.4,30.07,NNW,336,0.0,4.0,51,0.00,,---,0.00,VWS V14.00,2013-10-24 01:28:00,
2013-10-23 20:30:00,64.0,44.5,30.04,North,349,2.0,5.0,49,0.00,,---,0.00,VWS V14.00,2013-10-24 01:30:00,
2013-10-23 20:34:00,61.5,43.2,30.07,NNW,348,0.0,3.0,51,0.00,,---,0.00,VWS V14.00,2013-10-24 01:34:00,
2013-10-23 20:40:00,61.3,43.0,30.08,North,355,0.0,3.0,51,0.00,,---,0.00,VWS V14.00,2013-10-24 01:40:00,
2013-10-23 20:45:00,63.4,43.9,30.05,North,10,0.0,5.0,49,0.00,,---,0.00,VWS V14.00,2013-10-24 01:45:00,
2013-10-23 20:46:00,61.1,43.4,30.08,North,355,0.0,1.0,52,0.00,,---,0.00,VWS V14.00,2013-10-24 01:46:00,
2013-10-23 20:52:00,60.9,43.2,30.08,North,355,0.0,1.0,52,0.00,,---,0.00,VWS V14.00,2013-10-24 01:52:00,
2013-10-23 20:58:00,60.7,43.0,30.08,North,355,0.0,1.0,52,0.00,,---,0.00,VWS V14.00,2013-10-24 01:58:00,
2013-10-23 21:00:00,62.9,43.5,30.06,NW,322,1.0,5.0,49,0.00,,---,0.00,VWS V14.00,2013-10-24 02:00:00,
2013-10-23 21:05:00,60.4,43.7,30.09,North,355,0.0,0.0,54,0.00,,---,0.00,VWS V14.00,2013-10-24 02:05:00,
2013-10-23 21:11:00,60.1,43.4,30.09,North,355,0.0,1.0,54,0.00,,---,0.00,VWS V14.00,2013-10-24 02:11:00,
2013-10-23 21:15:00,62.3,43.4,30.06,NNW,336,3.0,5.0,50,0.00,,---,0.00,VWS V14.00,2013-10-24 02:15:00,
2013-10-23 21:17:00,59.9,43.7,30.09,North,355,0.0,0.0,55,0.00,,---,0.00,VWS V14.00,2013-10-24 02:17:00,
2013-10-23 21:23:00,59.6,43.4,30.09,North,355,0.0,0.0,55,0.00,,---,0.00,VWS V14.00,2013-10-24 02:23:00,
2013-10-23 21:29:00,59.1,43.4,30.09,North,355,0.0,0.0,56,0.00,,---,0.00,VWS V14.00,2013-10-24 02:29:00,
2013-10-23 21:30:00,61.7,43.4,30.07,North,355,0.0,4.0,51,0.00,,---,0.00,VWS V14.00,2013-10-24 02:30:00,
2013-10-23 21:35:00,58.9,43.2,30.09,North,355,0.0,0.0,56,0.00,,---,0.00,VWS V14.00,2013-10-24 02:35:00,
2013-10-23 21:41:00,58.5,43.8,30.09,North,355,0.0,0.0,58,0.00,,---,0.00,VWS V14.00,2013-10-24 02:41:00,
2013-10-23 21:45:00,61.2,43.5,30.08,North,355,0.0,3.0,52,0.00,,---,0.00,VWS V14.00,2013-10-24 02:45:00,
2013-10-23 21:47:00,58.1,43.0,30.10,North,355,0.0,1.0,57,0.00,,---,0.00,VWS V14.00,2013-10-24 02:47:00,
2013-10-23 21:53:00,57.9,42.8,30.10,North,355,0.0,1.0,57,0.00,,---,0.00,VWS V14.00,2013-10-24 02:53:00,
2013-10-23 21:59:00,57.7,43.0,30.10,NNE,26,0.0,1.0,58,0.00,,---,0.00,VWS V14.00,2013-10-24 02:59:00,
2013-10-23 22:00:00,60.6,43.4,30.08,North,355,0.0,1.0,53,0.00,,---,0.00,VWS V14.00,2013-10-24 03:00:00,
2013-10-23 22:05:00,57.5,42.8,30.10,NNE,26,0.0,1.0,58,0.00,,---,0.00,VWS V14.00,2013-10-24 03:05:00,
2013-10-23 22:11:00,57.3,42.7,30.10,NNE,26,0.0,1.0,58,0.00,,---,0.00,VWS V14.00,2013-10-24 03:11:00,
2013-10-23 22:15:00,59.9,43.2,30.09,North,355,0.0,1.0,54,0.00,,---,0.00,VWS V14.00,2013-10-24 03:15:00,
2013-10-23 22:17:00,57.1,42.5,30.10,NNE,26,0.0,0.0,58,0.00,,---,0.00,VWS V14.00,2013-10-24 03:17:00,
2013-10-23 22:23:00,56.9,42.3,30.10,NNE,26,0.0,0.0,58,0.00,,---,0.00,VWS V14.00,2013-10-24 03:23:00,
2013-10-23 22:29:00,56.8,42.2,30.11,NNE,26,0.0,0.0,58,0.00,,---,0.00,VWS V14.00,2013-10-24 03:29:00,
2013-10-23 22:30:00,59.1,43.4,30.09,North,355,0.0,0.0,56,0.00,,---,0.00,VWS V14.00,2013-10-24 03:30:00,
2013-10-23 22:35:00,56.7,42.5,30.11,NNE,26,1.0,1.0,59,0.00,,---,0.00,VWS V14.00,2013-10-24 03:35:00,
2013-10-23 22:41:00,56.6,42.5,30.11,NNE,26,1.0,1.0,59,0.00,,---,0.00,VWS V14.00,2013-10-24 03:41:00,
2013-10-23 22:45:00,58.2,43.1,30.10,North,355,0.0,0.0,57,0.00,,---,0.00,VWS V14.00,2013-10-24 03:45:00,
2013-10-23 22:47:00,56.4,42.3,30.11,NNE,26,0.0,0.0,59,0.00,,---,0.00,VWS V14.00,2013-10-24 03:47:00,
2013-10-23 22:53:00,56.2,42.1,30.11,NNE,26,0.0,1.0,59,0.00,,---,0.00,VWS V14.00,2013-10-24 03:53:00,
2013-10-23 22:59:00,56.0,41.9,30.11,NNE,26,0.0,1.0,59,0.00,,---,0.00,VWS V14.00,2013-10-24 03:59:00,
2013-10-23 23:00:00,57.6,43.0,30.10,NNE,26,0.0,1.0,58,0.00,,---,0.00,VWS V14.00,2013-10-24 04:00:00,
2013-10-23 23:05:00,55.8,41.7,30.11,NNE,26,0.0,1.0,59,0.00,,---,0.00,VWS V14.00,2013-10-24 04:05:00,
2013-10-23 23:11:00,55.7,41.6,30.11,NNE,26,0.0,1.0,59,0.00,,---,0.00,VWS V14.00,2013-10-24 04:11:00,
2013-10-23 23:15:00,55.5,41.9,30.11,NNE,26,0.0,1.0,60,0.00,,---,0.00,VWS V14.00,2013-10-24 04:15:00,
2013-10-23 23:23:00,55.3,41.2,30.11,North,5,0.0,2.0,59,0.00,,---,0.00,VWS V14.00,2013-10-24 04:23:00,
2013-10-23 23:29:00,55.3,41.2,30.10,NNW,345,0.0,3.0,59,0.00,,---,0.00,VWS V14.00,2013-10-24 04:29:00,
2013-10-23 23:30:00,56.8,42.2,30.11,NNE,26,0.0,0.0,58,0.00,,---,0.00,VWS V14.00,2013-10-24 04:30:00,
2013-10-23 23:35:00,55.3,41.2,30.10,NNW,343,0.0,6.0,59,0.00,,---,0.00,VWS V14.00,2013-10-24 04:35:00,
2013-10-23 23:41:00,55.4,41.8,30.10,North,355,0.0,6.0,60,0.00,,---,0.00,VWS V14.00,2013-10-24 04:41:00,
2013-10-23 23:45:00,56.4,42.3,30.11,NNE,26,0.0,1.0,59,0.00,,---,0.00,VWS V14.00,2013-10-24 04:45:00,
2013-10-23 23:47:00,55.5,41.4,30.10,NW,325,0.0,5.0,59,0.00,,---,0.00,VWS V14.00,2013-10-24 04:47:00,
2013-10-23 23:53:00,55.7,41.6,30.10,NNW,343,0.0,5.0,59,0.00,,---,0.00,VWS V14.00,2013-10-24 04:53:00,
2013-10-23 23:59:00,55.9,41.8,30.10,NNW,336,2.0,5.0,59,0.00,,---,0.00,VWS V14.00,2013-10-24 04:59:00,